Madison, SD

2:10 PM CST on February 08, 2016 (GMT -0600)
Madison Municipal

Weather History for KMDS - November, 2011

Change the Weather History Date:

Friday, November 11, 2011

  Actual Average Record
Temperature  
Mean Temperature 42 °F -  
Max Temperature 57 °F 38 °F 57 °F (2011)
Min Temperature 26 °F 21 °F 1 °F (2013)
Degree Days  
Heating Degree Days 24    
Moisture  
Dew Point 21 °F    
Average Humidity 48    
Maximum Humidity 80    
Minimum Humidity 27    
Precipitation  
Precipitation 0.00 in - - ()
Sea Level Pressure  
Sea Level Pressure 29.67 in    
Wind  
Wind Speed 12 mph (WSW)    
Max Wind Speed 17 mph    
Max Gust Speed 24 mph    
Visibility 10 miles    
Events      
Averages and records for this station are not official NWS values.
T = Trace of Precipitation, MM = Missing Value Source: NWS Daily Summary

Daily Weather History Graph

Daily Weather History Graph

Search for Another Location

Airport or City:

Trip Planner

Search our weather history database for the weather conditions in past years. The results will help you decide how hot, cold, wet, or windy it might be!

Date:

Astronomy

Nov. 11, 2011 Rise Set
Actual Time 7:17 AM CST 5:06 PM CST
Civil Twilight 6:46 AM CST 5:37 PM CST
Nautical Twilight 6:12 AM CST 6:11 PM CST
Astronomical Twilight 5:38 AM CST 6:45 PM CST
Moon 5:32 PM CST (11/11) 8:10 AM CST (11/11)
Length of Visible Light 10h 50m
Length of Day
9h 48m
Full, 99% of the Moon is Illuminated
Nov 11
Full
Nov 18
Last Quarter
Nov 25
New
Dec 2
First Quarter
Dec 10
Full

Hourly Weather History & Observations

Time (CST) Temp. Windchill Dew Point Humidity Pressure Visibility Wind Dir Wind Speed Gust Speed Precip Events Conditions
12:10 AM 32.0 °F 21.2 °F 14.0 °F 48% 29.83 in 10.0 mi South 16.1 mph 20.7 mph N/A   Clear
12:30 AM 32.0 °F 21.2 °F 14.0 °F 48% 29.81 in 10.0 mi South 16.1 mph 20.7 mph N/A   Clear
12:50 AM 32.0 °F 21.2 °F 14.0 °F 48% 29.80 in 10.0 mi South 16.1 mph 20.7 mph N/A   Clear
1:10 AM 32.0 °F 22.5 °F 14.0 °F 48% 29.78 in 10.0 mi South 12.7 mph - N/A   Clear
1:30 AM 32.0 °F 23.0 °F 14.0 °F 48% 29.78 in 10.0 mi South 11.5 mph - N/A   Clear
1:50 AM 30.2 °F 21.3 °F 15.8 °F 55% 29.76 in 10.0 mi South 10.4 mph - N/A   Clear
2:10 AM 30.2 °F 20.8 °F 15.8 °F 55% 29.76 in 10.0 mi South 11.5 mph - N/A   Clear
2:30 AM 30.2 °F 20.8 °F 17.6 °F 60% 29.75 in 10.0 mi South 11.5 mph 21.9 mph N/A   Clear
2:50 AM 30.2 °F 21.3 °F 17.6 °F 60% 29.74 in 10.0 mi South 10.4 mph - N/A   Clear
3:10 AM 30.2 °F 21.3 °F 17.6 °F 60% 29.73 in 10.0 mi South 10.4 mph - N/A   Clear
3:30 AM 30.2 °F 21.3 °F 17.6 °F 60% 29.72 in 10.0 mi South 10.4 mph - N/A   Clear
3:50 AM 28.4 °F 18.0 °F 19.4 °F 69% 29.72 in 10.0 mi South 12.7 mph - N/A   Clear
4:30 AM 28.4 °F 19.1 °F 19.4 °F 69% 29.70 in 10.0 mi South 10.4 mph - N/A   Clear
4:50 AM 30.2 °F 20.8 °F 19.4 °F 64% 29.70 in 10.0 mi South 11.5 mph - N/A   Clear
5:10 AM 30.2 °F 20.8 °F 19.4 °F 64% 29.69 in 10.0 mi SSW 11.5 mph - N/A   Clear
5:30 AM 28.4 °F 18.5 °F 19.4 °F 69% 29.68 in 10.0 mi SSW 11.5 mph - N/A   Clear
6:10 AM 26.6 °F 16.2 °F 21.2 °F 80% 29.67 in 10.0 mi SSW 11.5 mph - N/A   Clear
6:30 AM 26.6 °F 17.5 °F 21.2 °F 80% 29.68 in 10.0 mi SW 9.2 mph - N/A   Clear
6:50 AM 28.4 °F 18.0 °F 23.0 °F 80% 29.68 in 10.0 mi SW 12.7 mph - N/A   Clear
7:10 AM 28.4 °F 18.0 °F 21.2 °F 74% 29.68 in 10.0 mi WSW 12.7 mph - N/A   Clear
7:30 AM 28.4 °F 18.0 °F 21.2 °F 74% 29.67 in 10.0 mi WSW 12.7 mph - N/A   Clear
7:50 AM 30.2 °F 19.8 °F 23.0 °F 75% 29.67 in 10.0 mi WSW 13.8 mph 18.4 mph N/A   Clear
8:10 AM 32.0 °F 22.5 °F 23.0 °F 69% 29.67 in 10.0 mi WSW 12.7 mph - N/A   Clear
8:30 AM 32.0 °F 23.0 °F 21.2 °F 64% 29.67 in 10.0 mi West 11.5 mph - N/A   Clear
9:10 AM 37.4 °F 28.9 °F 21.2 °F 52% 29.67 in 10.0 mi West 13.8 mph - N/A   Clear
9:30 AM 39.2 °F 31.6 °F 21.2 °F 49% 29.67 in 10.0 mi West 12.7 mph - N/A   Clear
9:50 AM 41.0 °F 34.3 °F 23.0 °F 49% 29.67 in 10.0 mi WNW 11.5 mph - N/A   Clear
10:10 AM 44.6 °F 38.1 °F 21.2 °F 39% 29.67 in 10.0 mi WNW 13.8 mph 18.4 mph N/A   Clear
10:30 AM 46.4 °F 40.1 °F 23.0 °F 40% 29.67 in 10.0 mi WNW 15.0 mph - N/A   Clear
10:50 AM 46.4 °F 40.4 °F 23.0 °F 40% 29.67 in 10.0 mi West 13.8 mph - N/A   Clear
11:10 AM 48.2 °F - 23.0 °F 37% 29.67 in 10.0 mi West 12.7 mph - N/A   Clear
11:30 AM 48.2 °F - 23.0 °F 37% 29.66 in 10.0 mi West 12.7 mph - N/A   Clear
11:50 AM 50.0 °F - 23.0 °F 35% 29.66 in 10.0 mi West 10.4 mph - N/A   Clear
12:30 PM 51.8 °F - 23.0 °F 33% 29.65 in 10.0 mi West 17.3 mph 20.7 mph N/A   Clear
12:50 PM 53.6 °F - 23.0 °F 30% 29.64 in 10.0 mi West 12.7 mph 20.7 mph N/A   Clear
1:30 PM 55.4 °F - 23.0 °F 29% 29.64 in 10.0 mi WNW 16.1 mph 21.9 mph N/A   Clear
1:50 PM 57.2 °F - 23.0 °F 27% 29.63 in 10.0 mi West 13.8 mph 24.2 mph N/A   Clear
2:10 PM 57.2 °F - 23.0 °F 27% 29.63 in 10.0 mi West 16.1 mph 21.9 mph N/A   Clear
2:30 PM 57.2 °F - 24.8 °F 29% 29.63 in 10.0 mi West 15.0 mph 20.7 mph N/A   Clear
2:50 PM 57.2 °F - 24.8 °F 29% 29.63 in 10.0 mi West 12.7 mph 23.0 mph N/A   Clear
3:10 PM 57.2 °F - 24.8 °F 29% 29.63 in 10.0 mi West 15.0 mph 21.9 mph N/A   Clear
3:30 PM 57.2 °F - 24.8 °F 29% 29.63 in 10.0 mi West 15.0 mph 21.9 mph N/A   Clear
3:50 PM 57.2 °F - 24.8 °F 29% 29.63 in 10.0 mi West 11.5 mph 19.6 mph N/A   Clear
4:10 PM 57.2 °F - 24.8 °F 29% 29.63 in 10.0 mi West 11.5 mph - N/A   Clear
4:30 PM 55.4 °F - 24.8 °F 31% 29.62 in 10.0 mi WNW 11.5 mph - N/A   Clear
4:50 PM 53.6 °F - 24.8 °F 33% 29.62 in 10.0 mi West 10.4 mph - N/A   Clear
5:10 PM 51.8 °F - 24.8 °F 35% 29.62 in 10.0 mi WSW 8.1 mph - N/A   Clear
5:30 PM 50.0 °F - 24.8 °F 37% 29.62 in 10.0 mi WSW 6.9 mph - N/A   Clear
5:50 PM 50.0 °F - 24.8 °F 37% 29.62 in 10.0 mi WSW 5.8 mph - N/A   Clear
6:10 PM 48.2 °F - 24.8 °F 40% 29.62 in 10.0 mi West 6.9 mph - N/A   Clear
6:30 PM 48.2 °F - 23.0 °F 37% 29.62 in 10.0 mi WSW 5.8 mph - N/A   Clear
6:50 PM 46.4 °F 42.9 °F 23.0 °F 40% 29.62 in 10.0 mi West 6.9 mph - N/A   Clear
7:10 PM 46.4 °F 42.4 °F 23.0 °F 40% 29.62 in 10.0 mi WSW 8.1 mph - N/A   Clear
7:30 PM 44.6 °F 39.7 °F 23.0 °F 43% 29.61 in 10.0 mi West 9.2 mph - N/A   Clear
7:50 PM 46.4 °F 42.9 °F 23.0 °F 40% 29.62 in 10.0 mi WSW 6.9 mph - N/A   Clear
8:10 PM 44.6 °F 40.2 °F 23.0 °F 43% 29.61 in 10.0 mi WSW 8.1 mph - N/A   Clear
8:30 PM 42.8 °F 38.0 °F 23.0 °F 46% 29.61 in 10.0 mi WSW 8.1 mph - N/A   Clear
8:50 PM 41.0 °F 35.2 °F 21.2 °F 45% 29.61 in 10.0 mi WSW 9.2 mph - N/A   Clear
9:10 PM 41.0 °F 36.4 °F 21.2 °F 45% 29.61 in 10.0 mi SW 6.9 mph - N/A   Clear
9:30 PM 41.0 °F 36.4 °F 19.4 °F 42% 29.61 in 10.0 mi SW 6.9 mph - N/A   Clear
9:50 PM 41.0 °F 36.4 °F 19.4 °F 42% 29.60 in 10.0 mi WSW 6.9 mph - N/A   Clear
10:10 PM 41.0 °F 36.4 °F 19.4 °F 42% 29.59 in 10.0 mi SW 6.9 mph - N/A   Clear
10:30 PM 41.0 °F 36.4 °F 19.4 °F 42% 29.58 in 10.0 mi SSW 6.9 mph - N/A   Clear
10:50 PM 41.0 °F 37.1 °F 17.6 °F 39% 29.58 in 10.0 mi SSW 5.8 mph - N/A   Clear
11:10 PM 41.0 °F 37.1 °F 17.6 °F 39% 29.58 in 10.0 mi SSW 5.8 mph - N/A   Clear
11:30 PM 39.2 °F 33.6 °F 17.6 °F 42% 29.58 in 10.0 mi South 8.1 mph - N/A   Clear
11:50 PM 41.0 °F 35.8 °F 17.6 °F 39% 29.57 in 10.0 mi SSW 8.1 mph - N/A   Clear